Погода в Поворске

Украина / Волынская область     51°15′49″N   25°07′36″E
темп.,
°C
ветер,
м/с
пор.,
м/с
влажн.,
%
обл.,
%
осадки,
мм/ч
давл.,
гПа
погр.,
м
14 июня, пн
пн1400:00+12ссз5139685 1.2 1014746
03:00+12ссз51294100 1.6 1015731
06:00+11ссз51193100 0.0 1015575
09:00+12ссз5883100 0.0 1017610
12:00+16с576999 0.0 10171024
15:00+16с5776100 0.0 1018835
18:00+17ссв367793 0.0 1017769
21:00+15с238726 0.1 101764
15 июня, вт
вт1500:00+12ссз24960 0.0 101870
03:00+12сз23960 0.0 101846
06:00+12сз25950 0.0 1018105
09:00+18сз35660 0.0 1018497
12:00+22сз445339 0.0 10181523
15:00+23сз444739 0.0 10161793
18:00+22ссз4451100 0.0 10161550
21:00+17с2274100 0.0 101613
16 июня, ср
ср1600:00+15сз3683100 0.0 1016111
03:00+14с259696 0.0 1016104
06:00+14с279797 0.0 1017158
09:00+19ссв35746 0.0 1018624
12:00+23с445520 0.1 10181391
15:00+24с444911 0.1 10181645
18:00+23ссв455416 0.0 10181467
21:00+18с377530 0.0 1019151
17 июня, чт
чт1700:00+14ссв3586100 0.0 1020101
03:00+12св35910 0.0 102197
06:00+12св26880 0.0 1022128
09:00+19всв34660 0.0 1022474
12:00+24в34490 0.0 10221301
15:00+26в33400 0.0 10211662
18:00+25в34470 0.0 10211402
21:00+19ссв38770 0.0 1022167
18 июня, пт
пт1800:00+19всв398393 0.0 1022251
03:00+17вюв37950 0.0 1022144
06:00+16в389711 0.0 1022213
09:00+22вюв47758 0.0 1023661
12:00+26вюв565832 0.0 10231447
15:00+28вюв45503 0.0 10221732
18:00+27юв46540 0.0 10211650
21:00+22юв37820 0.0 1022194